Flag for Cameroon Weather past 2 weeks in Bamenda, Cameroon

Now
77 °F

Thunderstorms. Partly cloudy.


Feels Like: 78 °F
Forecast: 61 / 80 °F
Wind: No wind

Location: Douala Obs.

Current Time: Sep 18, 2014 at 4:48:28 AM

Latest Report: Sep 18, 2014 at 4:00 AM


Visibility: 5 mi

Pressure: 29.89 "Hg

Humidity: 94%

Dew point: 75 °F

Location of BamendaLocation

Historic Weather in Bamenda — Graph

°F

Bamenda temperature yesterday

Maximum temperature yesterday: 86 °F (at 2:00 PM)
Minimum temperature yesterday: 73 °F (at 3:00 AM)
Average temperature yesterday: 79 °F

Past Weeks' High & Low Weather Summary

 TemperatureHumidityPressure
High90 °F (Sep 12, 1:00 PM)100% (Sep 3, 3:00 AM)30.01 "Hg (Sep 3, 3:00 AM)
Low73 °F (Sep 3, 3:00 AM)59% (Sep 14, 3:00 PM)29.80 "Hg (Sep 10, 5:00 PM)
Average79 °F89%29.91 "Hg
* Reported Sep 3 3:00 AM — Sep 18 3:00 AM, Bamenda, Weather by CustomWeather, © 2014

Note: Actual official high and low records may vary slightly from our data, if they occured in-between our weather recording intervals... More about our weather records

Advertising

Bamenda weather history for previous 24 hours

 ConditionsComfort  
Time TempWeatherWind HumidityBarometerVisibility
3:00 AM
Sep 18
77 °FThunderstorms. Passing clouds.No wind94%29.89 "HgN/A
2:00 AM77 °FThunderstorms. Passing clouds.5 mph94%29.89 "HgN/A
1:00 AM77 °FThunderstorms. Passing clouds.No wind94%29.89 "HgN/A
12:00 AM77 °FPassing clouds.No wind94%29.92 "HgN/A
11:00 PM
Sep 17
77 °FPassing clouds.No wind94%29.92 "HgN/A
10:00 PM79 °FPassing clouds.No wind89%29.89 "HgN/A
9:00 PM79 °FPassing clouds.No wind94%29.89 "HgN/A
8:00 PM81 °FPassing clouds.No wind84%29.89 "HgN/A
7:00 PM81 °FPartly cloudy.5 mph84%29.86 "HgN/A
6:00 PM81 °FBroken clouds.9 mph89%29.83 "HgN/A
5:00 PM84 °FPartly sunny.9 mph74%29.83 "HgN/A
4:00 PM86 °FBroken clouds.9 mph70%29.83 "HgN/A
3:00 PM86 °FPartly sunny.9 mph70%29.83 "HgN/A
2:00 PM86 °FPartly sunny.7 mph70%29.86 "HgN/A
1:00 PM84 °FPartly sunny.5 mph74%29.89 "HgN/A
12:00 PM84 °FPartly sunny.7 mph74%29.92 "HgN/A
11:00 AM82 °FPartly sunny.No wind79%29.95 "HgN/A
10:00 AM81 °FThunderstorms. Partly sunny.5 mph79%29.95 "Hg5 mi
9:00 AM77 °FThunderstorms. Broken clouds.No wind94%29.95 "Hg4 mi
8:00 AM75 °FThunderstorms. Fog.No wind100%29.92 "Hg2 mi
7:00 AM75 °FThunderstorms. Broken clouds.No wind94%29.95 "Hg2 mi
6:00 AM73 °FThunderstorms. Partly cloudy.No wind100%29.92 "Hg2 mi
5:00 AM73 °FThunderstorms. Mostly cloudy.No wind100%29.92 "Hg2 mi
4:00 AM73 °FThunderstorms. Mostly cloudy.No wind100%29.92 "Hg2 mi
Weather by CustomWeather, © 2014

See weather overviewHow to use our weather pages